| time (UTC) | temp F | wind direction | speed MPH | gust MPH | rain 1hr in | rain 24hr in | rain mn in | humidity % | barometer mb |
| 20260505183704 | 54 | 340 | 4.0 | 6.0 | 0.00 | 0.00 | 0.00 | 70 | 1016.9 |
| 20260505183205 | 54 | 18 | 1.0 | 6.0 | 0.00 | 0.00 | 0.00 | 70 | 1016.9 |
| 20260505182704 | 54 | 28 | 2.0 | 7.0 | 0.00 | 0.00 | 0.00 | 69 | 1016.8 |
| 20260505182204 | 54 | 36 | 0.0 | 7.0 | 0.00 | 0.00 | 0.00 | 69 | 1016.9 |
| 20260505181204 | 54 | 352 | 3.0 | 7.0 | 0.00 | 0.00 | 0.00 | 69 | 1016.8 |
| 20260505180705 | 54 | 12 | 2.0 | 6.0 | 0.00 | 0.00 | 0.00 | 69 | 1016.8 |
| 20260505180204 | 54 | 354 | 4.0 | 7.0 | 0.00 | 0.00 | 0.00 | 70 | 1016.8 |
| 20260505175719 | 54 | 67 | 2.0 | 7.0 | 0.00 | 0.00 | 0.00 | 70 | 1016.9 |
| 20260505175205 | 54 | 57 | 0.0 | 7.0 | 0.00 | 0.00 | 0.00 | 70 | 1016.9 |
| 20260505174705 | 54 | 40 | 3.0 | 7.0 | 0.00 | 0.00 | 0.00 | 70 | 1016.9 |
| 20260505174204 | 54 | 14 | 2.0 | 8.0 | 0.00 | 0.00 | 0.00 | 70 | 1016.9 |
| 20260505173204 | 54 | 26 | 4.0 | 10.0 | 0.00 | 0.00 | 0.00 | 69 | 1016.9 |
| 20260505172704 | 54 | 358 | 2.0 | 10.0 | 0.00 | 0.00 | 0.00 | 69 | 1016.9 |
| 20260505172205 | 55 | 5 | 5.0 | 10.0 | 0.00 | 0.00 | 0.00 | 68 | 1016.9 |
| 20260505171204 | 55 | 337 | 7.0 | 8.0 | 0.00 | 0.00 | 0.00 | 69 | 1016.8 |
| 20260505170704 | 55 | 316 | 4.0 | 6.0 | 0.00 | 0.00 | 0.00 | 70 | 1016.9 |
| 20260505170204 | 55 | 21 | 0.0 | 6.0 | 0.00 | 0.00 | 0.00 | 69 | 1016.9 |
| 20260505165205 | 55 | 299 | 0.0 | 6.0 | 0.00 | 0.00 | 0.00 | 68 | 1016.9 |
| 20260505164705 | 55 | 277 | 0.0 | 6.0 | 0.00 | 0.00 | 0.00 | 69 | 1017.0 |
| 20260505163704 | 55 | 278 | 1.0 | 6.0 | 0.00 | 0.00 | 0.00 | 68 | 1016.9 |
| 20260505163204 | 55 | 298 | 3.0 | 5.0 | 0.00 | 0.00 | 0.00 | 67 | 1017.0 |
| 20260505162705 | 55 | 274 | 2.0 | 5.0 | 0.00 | 0.00 | 0.00 | 68 | 1016.9 |
| 20260505162205 | 55 | 305 | 2.0 | 6.0 | 0.00 | 0.00 | 0.00 | 68 | 1016.9 |
| 20260505161728 | 55 | 288 | 0.0 | 6.0 | 0.00 | 0.00 | 0.00 | 68 | 1017.0 |
| 20260505161205 | 55 | 286 | 0.0 | 6.0 | 0.00 | 0.00 | 0.00 | 68 | 1017.1 |
| 20260505160705 | 55 | 275 | 3.0 | 6.0 | 0.00 | 0.00 | 0.00 | 68 | 1017.1 |
| 20260505160204 | 55 | 295 | 0.0 | 4.0 | 0.00 | 0.00 | 0.00 | 68 | 1017.1 |
| 20260505153204 | 54 | 333 | 1.0 | 5.0 | 0.00 | 0.00 | 0.00 | 71 | 1017.2 |
| 20260505152204 | 53 | 8 | 0.0 | 6.0 | 0.00 | 0.00 | 0.00 | 71 | 1017.2 |
| 20260505151205 | 53 | 21 | 0.0 | 7.0 | 0.00 | 0.00 | 0.00 | 70 | 1017.1 |
| 20260505150705 | 53 | 21 | 2.0 | 7.0 | 0.00 | 0.00 | 0.00 | 70 | 1017.1 |
| 20260505150225 | 53 | 39 | 2.0 | 10.0 | 0.00 | 0.00 | 0.00 | 71 | 1017.0 |
| 20260505140204 | 56 | 299 | 0.0 | 8.0 | 0.00 | 0.00 | 0.00 | 68 | 1017.0 |
| 20260505130205 | 55 | 300 | 3.0 | 10.0 | 0.00 | 0.00 | 0.00 | 72 | 1017.6 |
| 20260505124704 | 55 | 7 | 0.0 | 8.0 | 0.00 | 0.00 | 0.00 | 71 | 1017.7 |
| 20260505124205 | 55 | 338 | 3.0 | 10.0 | 0.00 | 0.00 | 0.00 | 73 | 1017.7 |
| 20260505123704 | 54 | 23 | 4.0 | 10.0 | 0.00 | 0.00 | 0.00 | 73 | 1017.8 |
| 20260505123205 | 54 | 350 | 5.0 | 10.0 | 0.00 | 0.00 | 0.00 | 74 | 1017.8 |
| 20260505122704 | 53 | 340 | 5.0 | 9.0 | 0.00 | 0.00 | 0.00 | 75 | 1017.9 |
| 20260505122205 | 53 | 306 | 5.0 | 10.0 | 0.00 | 0.00 | 0.00 | 75 | 1017.9 |
| 20260505121704 | 53 | 310 | 4.0 | 10.0 | 0.00 | 0.00 | 0.00 | 76 | 1017.8 |
| 20260505121204 | 53 | 326 | 4.0 | 10.0 | 0.00 | 0.00 | 0.00 | 76 | 1017.9 |
| 20260505120704 | 52 | 277 | 2.0 | 9.0 | 0.00 | 0.00 | 0.00 | 76 | 1017.9 |
| 20260505115704 | 52 | 330 | 3.0 | 11.0 | 0.00 | 0.00 | 0.00 | 76 | 1018.0 |
| 20260505115205 | 52 | 323 | 5.0 | 13.0 | 0.00 | 0.00 | 0.00 | 76 | 1018.0 |
| 20260505114705 | 52 | 344 | 4.0 | 13.0 | 0.00 | 0.00 | 0.00 | 75 | 1018.0 |
| 20260505114204 | 52 | 270 | 6.0 | 13.0 | 0.00 | 0.00 | 0.00 | 74 | 1018.0 |
| 20260505113704 | 52 | 286 | 5.0 | 12.0 | 0.00 | 0.00 | 0.00 | 74 | 1018.0 |
| 20260505113205 | 53 | 295 | 10.0 | 10.0 | 0.00 | 0.00 | 0.00 | 73 | 1018.1 |
| 20260505112206 | 53 | 258 | 0.0 | 8.0 | 0.00 | 0.00 | 0.00 | 74 | 1018.1 |
| 20260505111704 | 53 | 331 | 0.0 | 8.0 | 0.00 | 0.00 | 0.00 | 74 | 1018.1 |
| 20260505111204 | 53 | 354 | 0.0 | 6.0 | 0.00 | 0.00 | 0.00 | 74 | 1018.2 |
| 20260505110704 | 53 | 281 | 0.0 | 6.0 | 0.00 | 0.00 | 0.00 | 74 | 1018.2 |
| 20260505110204 | 53 | 305 | 0.0 | 6.0 | 0.00 | 0.00 | 0.00 | 74 | 1018.3 |
| 20260505102205 | 52 | 316 | 2.0 | 9.0 | 0.00 | 0.00 | 0.00 | 76 | 1018.5 |
| 20260505101205 | 52 | 7 | 2.0 | 8.0 | 0.00 | 0.00 | 0.00 | 76 | 1018.6 |
| 20260505100705 | 52 | 267 | 5.0 | 7.0 | 0.00 | 0.00 | 0.00 | 77 | 1018.6 |
| 20260505095705 | 52 | 327 | 0.0 | 7.0 | 0.00 | 0.00 | 0.00 | 77 | 1018.7 |
| 20260505095204 | 52 | 337 | 4.0 | 7.0 | 0.00 | 0.00 | 0.00 | 78 | 1018.7 |
| 20260505094704 | 52 | 343 | 4.0 | 8.0 | 0.00 | 0.00 | 0.00 | 77 | 1018.7 |
| 20260505094204 | 52 | 327 | 4.0 | 8.0 | 0.00 | 0.00 | 0.00 | 77 | 1018.7 |
| 20260505093704 | 52 | 336 | 3.0 | 9.0 | 0.00 | 0.00 | 0.00 | 77 | 1018.7 |
| 20260505093204 | 52 | 317 | 3.0 | 9.0 | 0.00 | 0.00 | 0.00 | 77 | 1018.7 |
| 20260505092204 | 52 | 270 | 2.0 | 8.0 | 0.00 | 0.00 | 0.00 | 78 | 1018.7 |
| 20260505091704 | 52 | 307 | 4.0 | 9.0 | 0.00 | 0.00 | 0.00 | 78 | 1018.8 |
| 20260505091204 | 52 | 302 | 0.0 | 9.0 | 0.00 | 0.00 | 0.00 | 79 | 1018.9 |
| 20260505090704 | 51 | 19 | 4.0 | 9.0 | 0.00 | 0.00 | 0.00 | 81 | 1018.9 |
| 20260505090204 | 51 | 305 | 1.0 | 9.0 | 0.00 | 0.00 | 0.00 | 81 | 1019.0 |
| 20260505085705 | 51 | 253 | 0.0 | 9.0 | 0.00 | 0.00 | 0.00 | 79 | 1019.0 |
| 20260505085205 | 51 | 309 | 4.0 | 9.0 | 0.00 | 0.00 | 0.00 | 79 | 1019.1 |
| 20260505084204 | 51 | 322 | 4.0 | 11.0 | 0.00 | 0.00 | 0.00 | 82 | 1019.1 |
| 20260505083704 | 51 | 274 | 0.0 | 11.0 | 0.00 | 0.00 | 0.00 | 81 | 1019.2 |
| 20260505082705 | 51 | 343 | 8.0 | 9.0 | 0.00 | 0.00 | 0.00 | 84 | 1019.2 |
| 20260505082205 | 51 | 322 | 5.0 | 9.0 | 0.00 | 0.00 | 0.00 | 84 | 1019.2 |
| 20260505080205 | 50 | 320 | 2.0 | 9.0 | 0.00 | 0.00 | 0.00 | 86 | 1019.4 |
| 20260505075705 | 49 | 306 | 0.0 | 10.0 | 0.00 | 0.00 | 0.00 | 86 | 1019.4 |
| 20260505075204 | 49 | 306 | 5.0 | 10.0 | 0.00 | 0.00 | 0.00 | 86 | 1019.4 |
| 20260505074704 | 49 | 317 | 3.0 | 10.0 | 0.00 | 0.00 | 0.00 | 86 | 1019.4 |
| 20260505074205 | 49 | 326 | 2.0 | 9.0 | 0.00 | 0.00 | 0.00 | 87 | 1019.4 |
| 20260505073704 | 49 | 343 | 2.0 | 8.0 | 0.00 | 0.00 | 0.00 | 87 | 1019.5 |
| 20260505072705 | 48 | 298 | 2.0 | 6.0 | 0.00 | 0.00 | 0.00 | 89 | 1019.5 |
| 20260505072205 | 48 | 331 | 0.0 | 6.0 | 0.00 | 0.00 | 0.00 | 89 | 1019.6 |
| 20260505071704 | 48 | 279 | 0.0 | 6.0 | 0.00 | 0.00 | 0.00 | 89 | 1019.6 |
| 20260505071205 | 48 | 341 | 1.0 | 6.0 | 0.00 | 0.00 | 0.00 | 89 | 1019.6 |
| 20260505070705 | 47 | 319 | 1.0 | 6.0 | 0.00 | 0.00 | 0.00 | 90 | 1019.7 |
| 20260505065704 | 47 | 327 | 3.0 | 7.0 | 0.00 | 0.00 | 0.00 | 90 | 1019.7 |
| 20260505065205 | 47 | 331 | 0.0 | 7.0 | 0.00 | 0.00 | 0.00 | 90 | 1019.7 |
| 20260505064704 | 47 | 298 | 3.0 | 7.0 | 0.00 | 0.00 | 0.00 | 90 | 1019.7 |
| 20260505064205 | 47 | 288 | 0.0 | 7.0 | 0.00 | 0.00 | 0.00 | 90 | 1019.7 |
| 20260505063704 | 47 | 307 | 2.0 | 7.0 | 0.00 | 0.00 | 0.00 | 90 | 1019.8 |
| 20260505062704 | 47 | 336 | 2.0 | 5.0 | 0.00 | 0.00 | 0.00 | 90 | 1019.8 |
| 20260505062205 | 46 | 320 | 2.0 | 3.0 | 0.00 | 0.00 | 0.00 | 90 | 1019.8 |
| 20260505061705 | 46 | 305 | 0.0 | 3.0 | 0.00 | 0.00 | 0.00 | 90 | 1019.8 |
| 20260505061205 | 46 | 286 | 0.0 | 3.0 | 0.00 | 0.00 | 0.00 | 90 | 1019.8 |
| 20260505060704 | 46 | 286 | 0.0 | 4.0 | 0.00 | 0.00 | 0.00 | 90 | 1019.7 |
| 20260505060204 | 46 | 312 | 0.0 | 4.0 | 0.00 | 0.00 | 0.00 | 90 | 1019.7 |
| 20260505055704 | 46 | 315 | 0.0 | 5.0 | 0.00 | 0.00 | 0.00 | 90 | 1019.7 |
| 20260505055204 | 46 | 334 | 0.0 | 5.0 | 0.00 | 0.00 | 0.00 | 90 | 1019.7 |
| 20260505054704 | 46 | 313 | 0.0 | 6.0 | 0.00 | 0.00 | 0.00 | 90 | 1019.7 |
| 20260505054204 | 45 | 286 | 0.0 | 6.0 | 0.00 | 0.00 | 0.00 | 90 | 1019.7 |
| 20260505053704 | 45 | 300 | 0.0 | 6.0 | 0.00 | 0.00 | 0.00 | 90 | 1019.7 |
| 20260505053204 | 45 | 315 | 2.0 | 6.0 | 0.00 | 0.00 | 0.00 | 90 | 1019.7 |
| 20260505052705 | 45 | 324 | 2.0 | 5.0 | 0.00 | 0.00 | 0.00 | 90 | 1019.7 |
| 20260505052205 | 45 | 306 | 1.0 | 4.0 | 0.00 | 0.00 | 0.00 | 90 | 1019.6 |
| 20260505051705 | 45 | 331 | 0.0 | 4.0 | 0.00 | 0.00 | 0.00 | 90 | 1019.6 |
| 20260505051205 | 45 | 320 | 0.0 | 3.0 | 0.00 | 0.00 | 0.00 | 90 | 1019.5 |
| 20260505050704 | 45 | 286 | 1.0 | 4.0 | 0.00 | 0.00 | 0.00 | 90 | 1019.5 |
| 20260505041704 | 45 | 330 | 4.0 | 7.0 | 0.00 | 0.00 | 0.00 | 90 | 1019.5 |
| 20260505041205 | 45 | 324 | 1.0 | 6.0 | 0.00 | 0.00 | 0.00 | 90 | 1019.5 |
| 20260505040705 | 45 | 329 | 1.0 | 6.0 | 0.00 | 0.00 | 0.00 | 90 | 1019.5 |
| 20260505035704 | 45 | 320 | 2.0 | 6.0 | 0.00 | 0.00 | 0.00 | 90 | 1019.5 |
| 20260505035205 | 45 | 289 | 1.0 | 6.0 | 0.00 | 0.00 | 0.00 | 90 | 1019.5 |
| 20260505034205 | 45 | 310 | 2.0 | 5.0 | 0.00 | 0.00 | 0.00 | 92 | 1019.5 |
| 20260505033704 | 45 | 296 | 2.0 | 5.0 | 0.00 | 0.00 | 0.00 | 92 | 1019.5 |
| 20260505033204 | 45 | 330 | 0.0 | 5.0 | 0.00 | 0.00 | 0.00 | 92 | 1019.6 |
| 20260505032704 | 45 | 324 | 0.0 | 5.0 | 0.00 | 0.00 | 0.00 | 92 | 1019.6 |
| 20260505031705 | 45 | 289 | 2.0 | 6.0 | 0.00 | 0.00 | 0.00 | 92 | 1019.6 |
| 20260505031205 | 45 | 313 | 0.0 | 6.0 | 0.00 | 0.00 | 0.00 | 92 | 1019.5 |
| 20260505030204 | 45 | 320 | 2.0 | 6.0 | 0.00 | 0.00 | 0.00 | 92 | 1019.5 |
| 20260505025704 | 45 | 324 | 3.0 | 5.0 | 0.00 | 0.00 | 0.00 | 92 | 1019.4 |
| 20260505025205 | 45 | 324 | 2.0 | 6.0 | 0.00 | 0.00 | 0.00 | 92 | 1019.4 |
| 20260505024705 | 45 | 319 | 0.0 | 6.0 | 0.00 | 0.00 | 0.00 | 93 | 1019.4 |
| 20260505024204 | 45 | 320 | 0.0 | 6.0 | 0.00 | 0.00 | 0.00 | 93 | 1019.4 |
| 20260505023704 | 45 | 303 | 0.0 | 5.0 | 0.00 | 0.00 | 0.00 | 93 | 1019.5 |
| 20260505023205 | 45 | 333 | 1.0 | 5.0 | 0.00 | 0.00 | 0.00 | 93 | 1019.5 |
| 20260505022705 | 45 | 320 | 0.0 | 5.0 | 0.00 | 0.00 | 0.00 | 93 | 1019.5 |
| 20260505022204 | 45 | 327 | 0.0 | 0.0 | 0.00 | 0.00 | 0.00 | 94 | 1019.5 |
| 20260505021704 | 45 | 340 | 0.0 | 0.0 | 0.00 | 0.00 | 0.00 | 94 | 1019.5 |
| 20260505021204 | 45 | 340 | 0.0 | 0.0 | 0.00 | 0.00 | 0.00 | 94 | 1019.6 |
| 20260505020704 | 45 | 340 | 0.0 | 0.0 | 0.00 | 0.00 | 0.00 | 94 | 1019.6 |
| 20260505020205 | 45 | 340 | 0.0 | 3.0 | 0.00 | 0.00 | 0.00 | 94 | 1019.6 |
| 20260505015704 | 45 | 340 | 0.0 | 3.0 | 0.00 | 0.00 | 0.00 | 94 | 1019.6 |
| 20260505015205 | 45 | 340 | 0.0 | 3.0 | 0.00 | 0.00 | 0.00 | 95 | 1019.6 |
| 20260505014705 | 45 | 340 | 0.0 | 6.0 | 0.00 | 0.00 | 0.00 | 95 | 1019.7 |
| 20260505014205 | 45 | 340 | 0.0 | 6.0 | 0.00 | 0.00 | 0.00 | 95 | 1019.6 |
| 20260505013704 | 45 | 305 | 0.0 | 6.0 | 0.00 | 0.00 | 0.00 | 95 | 1019.8 |
| 20260505013204 | 44 | 315 | 0.0 | 4.0 | 0.00 | 0.00 | 0.00 | 95 | 1019.8 |
| 20260505012204 | 44 | 286 | 0.0 | 4.0 | 0.00 | 0.00 | 0.00 | 95 | 1019.8 |
| 20260505011705 | 44 | 302 | 1.0 | 4.0 | 0.00 | 0.00 | 0.00 | 95 | 1019.8 |
| 20260505011205 | 44 | 291 | 0.0 | 3.0 | 0.00 | 0.00 | 0.00 | 96 | 1019.8 |
| 20260505010204 | 44 | 313 | 1.0 | 3.0 | 0.00 | 0.00 | 0.00 | 96 | 1019.9 |
| 20260505005704 | 44 | 326 | 0.0 | 5.0 | 0.00 | 0.00 | 0.00 | 96 | 1019.9 |
| 20260505005205 | 44 | 305 | 0.0 | 6.0 | 0.00 | 0.00 | 0.00 | 96 | 1019.8 |
| 20260505004705 | 44 | 329 | 0.0 | 6.0 | 0.00 | 0.00 | 0.00 | 96 | 1019.9 |
| 20260505003704 | 44 | 2 | 2.0 | 6.0 | 0.00 | 0.00 | 0.00 | 96 | 1019.8 |
| 20260505003204 | 44 | 336 | 1.0 | 4.0 | 0.00 | 0.00 | 0.00 | 96 | 1019.8 |
| 20260505002705 | 44 | 313 | 0.0 | 4.0 | 0.00 | 0.00 | 0.00 | 95 | 1019.8 |
| 20260505002204 | 43 | 315 | 0.0 | 6.0 | 0.00 | 0.00 | 0.00 | 95 | 1019.8 |
| 20260505001704 | 43 | 344 | 1.0 | 6.0 | 0.00 | 0.00 | 0.00 | 95 | 1019.8 |
| 20260505000704 | 42 | 285 | 0.0 | 6.0 | 0.00 | 0.00 | 0.00 | 94 | 1019.9 |
| 20260504235705 | 42 | 313 | 2.0 | 5.0 | 0.00 | 0.00 | 0.00 | 93 | 1019.9 |
| 20260504234704 | 42 | 333 | 3.0 | 0.0 | 0.00 | 0.00 | 0.00 | 92 | 1019.9 |
| 20260504234204 | 41 | 350 | 0.0 | 5.0 | 0.00 | 0.00 | 0.00 | 92 | 1019.9 |
| 20260504233704 | 41 | 350 | 0.0 | 5.0 | 0.00 | 0.00 | 0.00 | 90 | 1019.8 |
| 20260504233205 | 41 | 350 | 0.0 | 5.0 | 0.00 | 0.00 | 0.00 | 90 | 1019.9 |
| 20260504232704 | 41 | 350 | 0.0 | 5.0 | 0.00 | 0.00 | 0.00 | 90 | 1019.8 |
| 20260504232204 | 41 | 352 | 0.0 | 5.0 | 0.00 | 0.00 | 0.00 | 90 | 1019.7 |
| 20260504231704 | 42 | 316 | 0.0 | 5.0 | 0.00 | 0.00 | 0.00 | 90 | 1019.6 |
| 20260504231204 | 42 | 341 | 4.0 | 5.0 | 0.00 | 0.00 | 0.00 | 89 | 1019.6 |
| 20260504230704 | 42 | 330 | 0.0 | 0.0 | 0.00 | 0.00 | 0.00 | 89 | 1019.6 |
| 20260504230205 | 42 | 337 | 0.0 | 2.0 | 0.00 | 0.00 | 0.00 | 89 | 1019.6 |
| 20260504225705 | 42 | 337 | 0.0 | 4.0 | 0.00 | 0.00 | 0.00 | 87 | 1019.5 |
| 20260504225204 | 42 | 337 | 0.0 | 4.0 | 0.00 | 0.00 | 0.00 | 87 | 1019.5 |
| 20260504224704 | 43 | 337 | 0.0 | 4.0 | 0.00 | 0.00 | 0.00 | 87 | 1019.5 |
| 20260504224204 | 43 | 317 | 0.0 | 4.0 | 0.00 | 0.00 | 0.00 | 87 | 1019.5 |
| 20260504223704 | 43 | 316 | 1.0 | 0.0 | 0.00 | 0.00 | 0.00 | 87 | 1019.4 |
| 20260504223220 | 43 | 331 | 0.0 | 0.0 | 0.00 | 0.00 | 0.00 | 87 | 1019.3 |
| 20260504222705 | 44 | 331 | 0.0 | 2.0 | 0.00 | 0.00 | 0.00 | 87 | 1019.3 |
| 20260504222204 | 44 | 331 | 0.0 | 2.0 | 0.00 | 0.00 | 0.00 | 87 | 1019.3 |
| 20260504221704 | 44 | 331 | 0.0 | 2.0 | 0.00 | 0.00 | 0.00 | 87 | 1019.4 |
| 20260504221204 | 45 | 331 | 0.0 | 2.0 | 0.00 | 0.00 | 0.00 | 87 | 1019.3 |
| 20260504220704 | 45 | 331 | 0.0 | 2.0 | 0.00 | 0.00 | 0.00 | 87 | 1019.3 |
| 20260504220230 | 45 | 355 | 0.0 | 0.0 | 0.00 | 0.00 | 0.00 | 86 | 1019.2 |
| 20260504215704 | 46 | 355 | 0.0 | 0.0 | 0.00 | 0.00 | 0.00 | 86 | 1019.2 |
| 20260504215205 | 46 | 355 | 0.0 | 3.0 | 0.00 | 0.00 | 0.00 | 86 | 1019.1 |
| 20260504213704 | 47 | 355 | 0.0 | 3.0 | 0.00 | 0.00 | 0.00 | 86 | 1019.1 |
| 20260504213205 | 47 | 326 | 0.0 | 0.0 | 0.00 | 0.00 | 0.00 | 86 | 1019.1 |
| 20260504212705 | 48 | 326 | 0.0 | 2.0 | 0.00 | 0.00 | 0.00 | 85 | 1019.1 |
| 20260504212205 | 48 | 326 | 0.0 | 2.0 | 0.00 | 0.00 | 0.00 | 85 | 1018.9 |
| 20260504211704 | 49 | 326 | 0.0 | 2.0 | 0.00 | 0.00 | 0.00 | 85 | 1018.9 |
| 20260504211205 | 49 | 326 | 0.0 | 2.0 | 0.00 | 0.00 | 0.00 | 85 | 1018.9 |
| 20260504210225 | 50 | 298 | 0.0 | 0.0 | 0.00 | 0.00 | 0.00 | 84 | 1018.9 |
| 20260504205705 | 51 | 298 | 0.0 | 0.0 | 0.00 | 0.00 | 0.00 | 84 | 1018.8 |
| 20260504205205 | 51 | 298 | 0.0 | 0.0 | 0.00 | 0.00 | 0.00 | 84 | 1018.7 |
| 20260504204705 | 51 | 298 | 0.0 | 0.0 | 0.00 | 0.00 | 0.00 | 85 | 1018.6 |
| 20260504204204 | 52 | 298 | 0.0 | 0.0 | 0.00 | 0.00 | 0.00 | 85 | 1018.6 |
| 20260504203204 | 52 | 298 | 0.0 | 0.0 | 0.00 | 0.00 | 0.00 | 84 | 1018.5 |
| 20260504202705 | 53 | 298 | 0.0 | 3.0 | 0.00 | 0.00 | 0.00 | 84 | 1018.4 |
| 20260504202205 | 53 | 298 | 0.0 | 3.0 | 0.00 | 0.00 | 0.00 | 84 | 1018.4 |
| 20260504201705 | 53 | 298 | 0.0 | 3.0 | 0.00 | 0.00 | 0.00 | 84 | 1018.3 |
| 20260504201205 | 53 | 298 | 0.0 | 3.0 | 0.00 | 0.00 | 0.00 | 84 | 1018.3 |
| 20260504200204 | 53 | 282 | 0.0 | 2.0 | 0.00 | 0.00 | 0.00 | 84 | 1018.2 |
| 20260504195205 | 53 | 282 | 0.0 | 0.0 | 0.00 | 0.00 | 0.00 | 83 | 1018.1 |
| 20260504194704 | 54 | 282 | 0.0 | 0.0 | 0.00 | 0.00 | 0.00 | 83 | 1018.0 |
| 20260504194204 | 54 | 282 | 0.0 | 0.0 | 0.00 | 0.00 | 0.00 | 83 | 1018.0 |
| 20260504193704 | 54 | 282 | 0.0 | 0.0 | 0.00 | 0.00 | 0.00 | 83 | 1018.0 |
| 20260504193204 | 54 | 282 | 0.0 | 0.0 | 0.00 | 0.00 | 0.00 | 83 | 1018.0 |
| 20260504192705 | 54 | 282 | 0.0 | 0.0 | 0.00 | 0.00 | 0.00 | 83 | 1017.9 |
| 20260504192205 | 54 | 282 | 0.0 | 0.0 | 0.00 | 0.00 | 0.00 | 83 | 1017.9 |
| 20260504191205 | 54 | 282 | 0.0 | 0.0 | 0.00 | 0.00 | 0.00 | 82 | 1017.8 |
| 20260504190705 | 54 | 282 | 0.0 | 0.0 | 0.00 | 0.00 | 0.00 | 81 | 1017.7 |
| 20260504185705 | 54 | 282 | 0.0 | 3.0 | 0.00 | 0.00 | 0.00 | 81 | 1017.7 |
| 20260504185205 | 54 | 282 | 0.0 | 3.0 | 0.00 | 0.00 | 0.00 | 81 | 1017.7 |
| 20260504184704 | 54 | 282 | 0.0 | 1.0 | 0.00 | 0.00 | 0.00 | 81 | 1017.7 |
| 20260504184205 | 55 | 299 | 0.0 | 0.0 | 0.00 | 0.00 | 0.00 | 79 | 1017.6 |